Left ArrowRight Arrow

33.98154, -81.23621

Hourly Observations for June 21, 2024

Temp ( °F °C ) Dew Point ( °F °C ) Humidity (%) Winds ( mph kmh ) Pressure ( in mb ) Visibility ( mi km ) Precip ( " mm )
12:56 am 00:56 Clear 74 23.3 64 17.8 71 71 E 6 9 30.23 1024 10 16 0.00 0.00
1:56 am 01:56 Clear 73 22.8 64 17.8 73 73 E 5 7 30.23 1024 10 16 0.00 0.00
2:56 am 02:56 Clear 71 21.7 65 18.3 81 81 E 3 6 30.22 1023 10 16 0.00 0.00
3:56 am 03:56 Clear 71 21.7 64 17.8 79 79 Calm 30.22 1023 10 16 0.00 0.00
4:56 am 04:56 Clear 68 20 64 17.8 87 87 Calm 30.21 1023 10 16 0.00 0.00
5:56 am 05:56 Clear 68 20 64 17.8 87 87 Calm 30.21 1023 10 16 0.00 0.00
6:56 am 06:56 Sunny 71 21.7 66 18.9 84 84 NNE 3 6 30.22 1023 10 16 0.00 0.00
7:56 am 07:56 Sunny 75 23.9 67 19.4 76 76 NE 5 7 30.22 1024 10 16 0.00 0.00
8:56 am 08:56 Sunny 78 25.6 67 19.4 69 69 E 6 9 30.23 1024 10 16 0.00 0.00
9:56 am 09:56 Sunny 82 27.8 65 18.3 56 56 NE 7 11 30.22 1024 10 16 0.00 0.00
10:56 am 10:56 Mostly Sunny 85 29.4 64 17.8 50 50 ENE 13 20 30.21 1023 10 16 0.00 0.00
11:56 am 11:56 Mostly Sunny 88 31.1 62 16.7 42 42 E 14 22 30.20 1023 10 16 0.00 0.00
12:56 pm 12:56 Mostly Sunny 90 32.2 61 16.1 38 38 NNE 10 17 30.18 1022 10 16 0.00 0.00
1:56 pm 13:56 Mostly Sunny 92 33.3 63 17.2 38 38 VRB 7 11 30.16 1021 10 16 0.00 0.00
2:56 pm 14:56 Partly Cloudy 93 33.9 63 17.2 37 37 E 10 17 30.14 1021 10 16 0.00 0.00
3:56 pm 15:56 Partly Cloudy 94 34.4 64 17.8 37 37 ENE 9 15 30.11 1020 10 16 0.00 0.00
4:56 pm 16:56 Partly Cloudy 92 33.3 64 17.8 40 40 E 8 13 30.10 1019 10 16 0.00 0.00
5:56 pm 17:56 Partly Cloudy 91 32.8 66 18.9 44 44 E 10 17 30.09 1019 10 16 0.00 0.00
6:56 pm 18:56 Mostly Cloudy 91 32.8 67 19.4 45 45 E 14 22 30.09 1019 10 16 0.00 0.00
7:56 pm 19:56 Partly Cloudy 85 29.4 72 22.2 65 65 ESE 10 17 30.09 1019 10 16 0.00 0.00
8:56 pm 20:56 Mostly Cloudy 83 28.3 73 22.8 72 72 ESE 12 19 30.11 1020 10 16 0.00 0.00
9:56 pm 21:56 Mostly Cloudy 82 27.8 72 22.2 72 72 E 9 15 30.11 1020 10 16 0.00 0.00
10:56 pm 22:56 Mostly Clear 81 27.2 73 22.8 77 77 E 7 11 30.13 1020 10 16 0.00 0.00
11:56 pm 23:56 Mostly Clear 79 26.1 73 22.8 82 82 E 7 11 30.14 1021 10 16 0.00 0.00

Powered by Vaisala Xweather